Location: Arlington
(40.6323°N, 74.1651°W)
Time: 09:11:36
(UTC+00:00)

BREEZE-M DEB (TANK) - Pass Details

Date: 22 November 2019
Orbit: 333 x 16598 km, 49.4° (Epoch: 09 December)

Event Time Altitude Azimuth Distance (km) Brightness Sun altitude
Rises 23:18:10 0° 288° (WNW) 5,148 8.3 -19.5°
Reaches altitude 10° 23:23:22 10° 300° (WNW) 2,748 6.5 -20.5°
Maximum altitude 23:27:42 24° 357° (N) 1,096 3.7 -21.3°
Enters shadow 23:27:46 24° 359° (N) 1,087 3.7 -21.3°
